THORAD AGENA D DEB, 42535

Orbit data source: Space-Track

THORAD AGENA D DEB, 42535 is space debris in SSO originally from a launch on Wed, 08 Apr 1970 UTC launched from the Air Force Western Test Range (AFWTR). Debris objects in space refer to the collection of defunct objects orbiting the Earth. Examples of debris include non-operational satellites, rocket bodies, and fragments generated from explosions, collisions, or faulty payload assembly.

Loading next visibility...
Identifier
42535, 1970-025SR
Orbit
SSO
Country
Flag of USUS
Related business
Manufacturer
Unknown
Mission
Spacecraft
Bus & Motor
Unknown
Mass
Unknown
Launch date (UTC)
1970-04-08 (56 years ago)
Launch vehicle
Unknown
Launch site
Air Force Western Test Range (AFWTR)
Object type
Payload
Rocket body
Debris
Shape & HBR
Unknown shape, 0.1 m
Radar Cross Section
Small (<0.1 m²)

Expand to show TLE details & history
Last TLE update: 2 days ago

TLE from 2 days ago
0 THORAD AGENA D DEB
1 42535U 70025SR  26121.61695997  .00002554  00000-0  23529-2 0  9996
2 42535  99.8568  72.1195 0077246  27.9897 332.5377 13.82360600623571
Epoch: 2026-05-01T14:48Z
TLE epoch observation values (Epoch: 2026-05-01T14:48:25.341Z)
Latitude
-0.00002°
Longitude
-9.53273°
Altitude
908.169 km
Speed
7.423 km/s
True Right ascension
04h 48m 28s
True Declination
0° 00' 00"
Sunlit
Object was in daylight at epoch
Visualization orbit readout
Latitude
Unknown
Longitude
Unknown
Altitude
Unknown
Speed
Unknown
Apparent Right ascension
Unknown
Apparent Declination
Unknown
Sunlit
N/A
Visualization observer readout
Local Sidereal Time
13:02:57
Azimuth
Unknown
Elevation
Unknown
Doppler factor
Unknown
Orbital elements
Apogee altitude
1,009.421 km
Perigee altitude
896.164 km
Semi-major axis
7,330.929 km
Eccentricity
0.00772
Inclination
99.8568°
RAAN
72.1195°
Arg. of periapsis
27.9897°
True anomaly
332.12597°
Mean anomaly
332.5377°
Eccentric anomaly
332.33219°
Mean motion
3.45784 °/min
Orbital period
104.11 mins
BSTAR
0.0023529
Loading maneuver chart data...
Computing Atmospheric mass density...

Documentation

Showing up to 5 results
|